TimeCST,TemperatureF,Dew PointF,Humidity,Sea Level PressureIn,VisibilityMPH,Wind Direction,Wind SpeedMPH,Gust SpeedMPH,PrecipitationIn,Events,Conditions,WindDirDegrees,DateUTC
12:53 AM,33.1,18.0,54,30.28,10.0,NW,8.1,-,N/A,,Clear,320,2013-01-16 06:53:00
1:53 AM,33.1,17.1,52,30.29,10.0,NNW,8.1,-,N/A,,Clear,330,2013-01-16 07:53:00
2:53 AM,30.0,17.1,59,30.29,10.0,WNW,6.9,-,N/A,,Clear,300,2013-01-16 08:53:00
3:53 AM,28.9,18.0,64,30.30,10.0,WNW,9.2,-,N/A,,Clear,290,2013-01-16 09:53:00
4:53 AM,28.0,19.0,69,30.30,10.0,WNW,8.1,-,N/A,,Clear,300,2013-01-16 10:53:00
5:53 AM,27.0,18.0,69,30.30,10.0,NW,3.5,-,N/A,,Clear,310,2013-01-16 11:53:00
6:53 AM,26.1,18.0,71,30.32,10.0,WNW,5.8,-,N/A,,Clear,290,2013-01-16 12:53:00
7:53 AM,26.1,18.0,71,30.33,10.0,NW,3.5,-,N/A,,Clear,310,2013-01-16 13:53:00
8:53 AM,28.9,21.0,72,30.35,10.0,West,8.1,-,N/A,,Clear,280,2013-01-16 14:53:00
9:53 AM,35.1,19.9,54,30.36,10.0,WNW,6.9,-,N/A,,Clear,300,2013-01-16 15:53:00
10:53 AM,39.0,19.9,46,30.33,10.0,West,4.6,-,N/A,,Clear,280,2013-01-16 16:53:00
11:53 AM,43.0,19.9,40,30.29,10.0,West,8.1,-,N/A,,Clear,270,2013-01-16 17:53:00
1:53 PM,48.9,16.0,27,30.22,10.0,WNW,12.7,23.0,N/A,,Clear,300,2013-01-16 19:53:00
2:53 PM,48.9,14.0,25,30.21,10.0,West,9.2,21.9,N/A,,Clear,270,2013-01-16 20:53:00
3:53 PM,48.9,8.1,19,30.20,10.0,WNW,15.0,21.9,N/A,,Clear,290,2013-01-16 21:53:00
4:53 PM,50.0,12.9,23,30.22,10.0,NW,12.7,19.6,N/A,,Clear,310,2013-01-16 22:53:00
5:53 PM,46.9,15.1,28,30.24,10.0,NNW,8.1,-,N/A,,Clear,330,2013-01-16 23:53:00
6:53 PM,39.9,19.9,45,30.25,10.0,Calm,Calm,-,N/A,,Clear,0,2013-01-17 00:53:00
7:53 PM,36.0,23.0,59,30.27,10.0,Calm,Calm,-,N/A,,Clear,0,2013-01-17 01:53:00
8:53 PM,33.1,21.9,64,30.29,10.0,Calm,Calm,-,N/A,,Clear,0,2013-01-17 02:53:00
9:53 PM,33.1,23.0,66,30.29,10.0,Calm,Calm,-,N/A,,Scattered Clouds,0,2013-01-17 03:53:00
10:53 PM,33.1,23.0,66,30.30,10.0,NNE,4.6,-,N/A,,Clear,30,2013-01-17 04:53:00
11:53 PM,32.0,23.0,69,30.31,10.0,Calm,Calm,-,N/A,,Clear,0,2013-01-17 05:53:00